Theta_e
278 279 279 279 279 280 280 281 282 283 284 284 284 284 286 287 288 288 288 288 289 291 294 298 302 305 302 312 315 317 322 323 325 324 325 326 327 329
278 278 278 279 279 279 280 280 281 282 283 282 283 283 284 284 284 285 286 288 289 291 292 290 293 296 300 306 312 316 320 321 323 325 323 322 321 327
277 278 278 278 278 279 279 280 280 281 282 282 282 283 283 283 285 286 286 286 290 290 290 290 291 296 297 301 307 314 319 321 322 324 323 322 323 327
277 277 278 278 278 278 279 279 280 280 281 282 282 282 283 283 283 284 284 284 285 285 287 288 292 293 292 298 302 311 318 320 323 323 322 321 325 327
277 277 277 277 278 278 278 279 279 280 280 281 281 281 282 282 282 283 283 285 286 288 291 292 292 294 296 295 296 302 315 319 321 322 321 321 324 325
277 277 278 278 278 278 278 279 279 279 280 280 281 281 282 282 283 283 285 286 288 288 288 289 290 290 290 292 296 300 309 318 320 320 321 322 323 324
279 279 278 279 279 279 279 279 279 279 280 280 281 281 281 282 283 283 283 284 284 285 286 286 287 289 289 290 302 305 307 317 319 319 318 318 320 320
282 282 282 281 282 282 282 283 282 279 280 280 281 281 281 282 282 283 283 284 286 287 288 290 290 291 294 296 293 299 302 314 318 317 316 314 314 314
283 282 282 282 282 283 282 282 283 285 285 280 281 281 281 281 282 282 283 284 285 286 288 289 291 293 293 301 304 299 302 312 316 316 315 314 313 312
282 282 282 282 282 282 282 282 282 282 283 283 284 282 281 282 282 282 283 284 284 285 287 288 288 294 295 299 304 306 304 312 314 315 314 312 311 310
283 283 283 283 283 283 283 283 283 283 282 282 282 283 283 283 282 282 283 284 285 285 285 287 289 291 293 296 299 306 304 310 313 313 313 311 309 309
284 285 285 285 286 287 285 284 284 283 283 283 283 283 284 284 284 284 283 284 285 285 287 289 289 289 294 296 298 301 304 308 310 311 311 310 308 308
284 283 283 284 284 286 287 288 285 284 284 284 283 282 283 283 284 285 285 284 285 285 286 288 289 288 290 292 295 297 302 305 307 305 308 307 306 307
283 283 283 283 284 285 289 289 290 286 284 284 285 283 282 283 283 284 284 285 286 286 287 287 288 289 291 292 293 295 298 301 303 302 303 304 305 305
281 283 281 281 283 286 288 289 289 288 287 286 285 284 283 282 282 283 283 283 284 284 285 286 286 287 287 288 291 292 294 295 299 298 299 298 298 298
282 280 280 280 280 282 287 287 287 287 287 287 286 285 283 282 282 282 283 283 284 284 284 284 285 286 287 288 290 291 292 291 292 292 295 294 294 295
280 279 279 279 279 279 282 286 286 287 287 285 284 283 283 283 283 283 283 283 284 284 284 284 285 286 287 286 289 290 290 289 289 289 291 290 290 291
279 279 280 279 279 279 279 282 285 286 286 285 284 284 283 283 283 283 283 283 284 284 285 286 287 287 287 287 289 289 288 288 288 288 289 288 287 288
279 279 279 279 279 279 279 280 284 284 285 286 284 284 283 283 284 283 283 284 284 285 284 284 286 287 288 289 286 288 287 287 287 287 287 287 287 287
279 279 279 279 279 279 279 279 281 284 284 285 284 284 283 283 283 283 283 283 284 284 285 287 287 288 289 287 286 285 287 287 286 286 286 286 286 286
279 279 279 279 279 279 279 279 280 283 284 284 284 283 283 283 283 283 284 284 284 285 286 287 288 290 288 285 285 284 285 286 286 285 285 284 283 283
278 279 279 279 279 279 279 279 280 282 284 283 283 284 283 283 283 283 284 285 286 286 287 288 288 288 287 285 284 283 282 282 282 282 283 283 282 282
278 278 279 279 279 279 279 281 281 282 284 283 283 283 284 284 284 284 285 286 287 287 286 286 286 286 284 283 283 282 282 282 282 281 281 282 281 281
Wind_Speed
30 30 30 29 28 30 30 28 22 16 15 23 21 17 18 18 20 22 26 30 30 29 28 28 26 22 20 16 21 22 20 23 29 37 26 34 42 37
30 31 30 29 30 29 30 30 29 27 17 25 26 25 27 29 30 31 30 27 30 27 28 33 32 30 26 20 17 19 19 20 22 25 31 29 26 35
34 34 34 33 33 31 30 30 30 29 19 29 28 28 29 30 27 24 26 28 25 25 25 28 30 28 32 25 19 19 18 19 20 21 20 22 24 26
34 34 35 34 34 33 32 33 33 33 30 25 29 27 28 28 29 29 29 30 31 32 30 29 27 30 36 33 24 19 19 17 21 24 24 22 20 21
36 36 37 36 36 34 34 34 33 32 31 30 29 28 29 28 30 29 28 26 25 23 22 24 25 24 23 27 30 24 19 19 20 21 21 20 19 19
39 39 39 38 39 38 37 36 34 33 31 31 29 26 26 26 26 24 23 22 22 21 23 22 24 27 30 27 27 26 23 21 23 23 21 22 21 23
38 40 42 43 43 43 39 37 36 33 30 27 26 24 24 23 25 23 23 23 24 24 26 27 26 26 27 28 24 25 23 23 25 27 25 25 24 22
38 38 37 42 45 47 47 49 44 35 35 29 26 23 25 25 25 23 22 19 10 13 19 16 15 20 20 24 27 29 23 24 30 29 27 25 24 22
36 38 37 36 37 38 42 46 48 49 46 39 35 32 29 27 26 26 25 22 20 20 18 19 14 18 22 17 23 24 24 23 33 32 28 26 25 24
39 40 40 40 39 38 38 39 40 43 44 41 36 37 38 33 34 32 27 25 23 22 17 15 20 14 15 16 17 24 23 24 36 33 30 29 27 24
41 42 41 41 42 42 41 38 38 40 40 43 41 37 28 32 31 27 24 20 12 19 18 20 18 13 13 17 13 22 25 27 38 36 32 32 28 24
36 35 36 39 40 42 44 40 35 37 33 33 36 38 36 35 32 34 26 20 15 11 15 14 13 7 6 8 10 12 23 31 39 38 35 34 32 30
34 35 33 36 42 42 43 42 44 37 34 33 31 29 31 28 28 34 32 27 19 17 13 12 4 13 9 6 5 6 16 21 33 39 36 35 33 36
33 34 33 40 43 45 33 33 42 40 32 27 25 26 27 28 28 26 30 29 28 21 10 14 8 2 3 4 3 1 6 15 28 33 41 38 34 34
36 33 38 35 33 33 20 11 19 26 27 29 28 27 31 30 26 26 26 26 27 26 20 20 19 14 11 11 5 2 6 8 25 27 44 40 39 39
34 32 31 30 28 29 13 12 16 21 23 24 24 28 26 24 23 24 23 22 21 19 25 29 23 15 12 14 16 5 10 6 16 20 44 39 37 37
37 28 23 24 23 23 21 7 6 8 13 16 21 22 23 23 22 21 18 17 15 15 16 25 26 20 15 17 10 8 17 17 19 18 35 36 31 32
31 25 21 20 18 18 17 16 5 4 11 20 22 23 22 22 21 18 17 16 15 15 15 17 15 12 7 6 12 13 15 22 25 17 21 42 31 32
26 27 24 23 20 18 15 13 7 7 9 16 22 22 22 21 22 18 17 16 15 15 17 18 18 16 7 3 4 18 25 24 31 21 21 33 36 32
30 29 27 25 22 18 16 12 9 10 11 14 18 22 21 21 18 18 18 16 16 16 15 14 22 21 13 6 4 11 26 36 34 27 32 35 40 38
35 33 32 28 25 20 17 12 8 10 15 15 17 20 21 20 17 17 18 19 18 15 13 15 19 22 21 25 14 19 23 26 35 39 37 37 30 28
37 36 35 32 28 24 19 13 5 13 16 17 18 17 19 19 18 17 16 16 16 16 16 17 26 31 27 27 20 29 30 33 34 31 25 25 20 7
40 39 37 34 31 28 25 19 11 15 18 16 17 19 20 17 16 15 14 17 11 18 19 20 22 27 28 35 34 29 34 31 34 35 33 21 32 36
Wind_Direction
277 276 271 268 264 262 262 262 267 281 281 283 281 279 283 282 287 292 291 291 292 294 290 286 291 280 300 276 263 257 244 246 237 238 246 247 234 245
277 275 271 269 267 263 259 259 256 263 276 273 274 275 280 279 282 286 286 289 288 286 289 281 288 291 288 281 276 263 253 237 236 233 231 234 241 244
275 272 270 269 265 263 261 258 256 253 263 273 271 272 274 278 280 278 282 286 283 286 288 289 282 286 276 277 283 268 255 237 230 223 219 230 234 233
274 272 271 271 268 266 263 259 256 255 258 268 269 270 269 270 274 277 279 278 278 280 282 283 280 281 277 270 277 278 259 245 233 225 232 233 231 228
273 270 267 266 265 262 259 258 258 258 255 256 262 263 265 267 271 273 275 275 275 276 276 278 281 278 280 278 272 275 264 239 235 220 219 224 218 217
268 265 264 260 259 258 257 256 255 254 253 254 258 258 258 262 263 267 272 270 274 277 278 275 280 281 272 264 263 265 264 233 231 219 208 204 210 212
268 263 259 257 258 257 253 250 248 249 249 250 252 251 247 250 254 263 265 274 274 273 274 273 278 281 276 262 255 253 260 230 226 217 212 214 215 223
280 275 270 261 258 260 262 256 247 236 238 240 244 244 247 247 253 256 260 264 271 274 263 275 281 274 280 266 246 246 254 234 219 217 217 217 207 201
288 287 282 275 271 262 257 258 258 255 245 231 232 233 236 234 240 246 249 252 254 265 278 287 292 291 276 278 247 239 248 233 219 216 213 204 197 193
288 284 279 274 267 262 256 253 250 246 245 250 245 233 229 227 223 232 239 248 256 254 253 273 279 292 300 288 245 226 233 232 217 211 200 193 190 187
288 283 279 274 268 265 259 253 247 246 242 244 246 247 240 232 229 233 237 239 249 252 251 244 257 283 293 288 275 226 218 229 217 202 196 189 184 177
301 295 294 291 285 272 253 246 243 240 238 233 236 240 242 232 226 228 230 231 236 255 251 227 250 259 280 249 261 244 215 222 209 197 191 183 179 168
312 306 300 297 294 285 275 257 234 233 233 230 224 222 226 229 227 223 227 221 220 228 233 198 264 228 213 298 275 225 191 193 189 189 177 179 178 171
312 308 303 307 303 299 288 270 244 219 221 222 217 208 207 213 218 222 226 227 223 220 232 231 249 9 291 280 298 239 169 179 174 161 161 166 167 166
317 316 320 317 313 312 293 286 218 221 213 210 211 206 203 202 207 212 220 221 226 232 237 240 253 268 282 316 277 184 128 107 149 154 144 147 145 152
330 330 326 327 329 339 263 252 235 224 221 224 203 201 184 183 195 204 207 208 215 222 228 243 242 246 259 285 269 170 142 136 132 155 135 139 144 148
341 322 325 332 336 338 337 287 262 263 189 162 163 155 170 180 192 198 197 198 208 211 211 227 237 234 238 255 299 212 151 134 140 133 131 119 128 141
341 334 330 334 332 329 325 325 224 211 164 159 166 170 174 181 185 191 196 195 200 204 201 206 199 183 183 203 231 179 146 137 141 138 133 120 111 121
345 340 336 335 330 324 319 315 291 199 174 166 168 171 170 173 177 179 188 192 197 196 209 210 205 195 181 164 79 172 142 136 126 119 120 115 116 117
347 344 339 336 333 327 323 313 304 182 178 164 164 170 174 172 173 180 190 197 203 209 212 214 197 197 186 163 113 94 146 131 122 121 115 107 110 117
345 346 345 340 337 332 327 316 279 202 179 173 170 169 166 168 175 180 188 194 194 197 205 221 196 178 159 123 103 94 103 125 129 124 121 115 114 113
347 346 347 346 342 340 334 320 269 199 180 171 170 166 171 173 178 193 195 198 197 194 227 194 156 157 141 131 123 112 104 104 109 112 114 123 126 121
348 348 350 351 349 350 349 350 186 177 166 165 167 164 170 173 184 186 202 204 195 154 135 130 141 138 132 129 123 119 114 108 104 93 85 97 114 118